Torna al catalogo

STARLINK-36805

AttivoComunicazioniSSO
NORAD 68116·PAYLOAD·🇺🇸 United States

Lanciato Mar 8, 2026 da Vandenberg Space Force Base

Loading…

Prossimi Passaggi (prossime 24 ore)

TLE

AggiornatoSource: CelesTrak SupGP

Epoca: Sep 14, 2026, 23:25 UTC

1 68116C 26044R   26257.97618056 -.00053861  00000+0 -16721-2 0  2572
2 68116  97.2850 217.0215 0001624  87.7876 223.7548 15.33463338    10

Traccia STARLINK-36805 in tempo reale con AllMySat

Download on the App Store